THORAD AGENA D DEB, 19238

Orbit data source: Space-Track

THORAD AGENA D DEB, 19238 is space debris in SSO originally from a launch on Wed, 08 Apr 1970 UTC launched from the Air Force Western Test Range (AFWTR). Debris objects in space refer to the collection of defunct objects orbiting the Earth. Examples of debris include non-operational satellites, rocket bodies, and fragments generated from explosions, collisions, or faulty payload assembly.

Loading next visibility...
Identifier
19238, 1970-025PT
Orbit
SSO
Country
Flag of USUS
Related business
Manufacturer
Unknown
Mission
Spacecraft
Bus & Motor
Unknown
Mass
Unknown
Launch date (UTC)
1970-04-08 (56 years ago)
Launch vehicle
Unknown
Launch site
Air Force Western Test Range (AFWTR)
Object type
Payload
Rocket body
Debris
Shape & HBR
Unknown shape, 0.1 m
Radar Cross Section
Small (<0.1 m²)

Expand to show TLE details & history
Last TLE update: 17 hours ago

TLE from 17 hours ago
0 THORAD AGENA D DEB
1 19238U 70025PT  25300.99066012  .00001826  00000-0  18061-2 0  9995
2 19238  99.8729 119.6866 0043743 332.7463 179.3468 13.79521649908041
Epoch: 2025-10-27T23:46Z
TLE epoch observation values (Epoch: 2025-10-27T23:46:33.034Z)
Latitude
27.49336°
Longitude
-88.36596°
Altitude
1,000.992 km
Speed
7.338 km/s
True Right ascension
20h 19m 25s
True Declination
27° 21' 27"
Sunlit
Object was in daylight at epoch
Visualization orbit readout
Latitude
Unknown
Longitude
Unknown
Altitude
Unknown
Speed
Unknown
Apparent Right ascension
Unknown
Apparent Declination
Unknown
Sunlit
N/A
Visualization observer readout
Local Sidereal Time
12:38:07
Azimuth
Unknown
Elevation
Unknown
Doppler factor
Unknown
Orbital elements
Apogee altitude
994.967 km
Perigee altitude
930.743 km
Semi-major axis
7,340.992 km
Eccentricity
0.00437
Inclination
99.8729°
RAAN
119.6866°
Arg. of periapsis
332.7463°
True anomaly
179.35248°
Mean anomaly
179.3468°
Eccentric anomaly
179.34964°
Mean motion
3.45073 °/min
Orbital period
104.33 mins
BSTAR
0.0018061
Loading maneuver chart data...
Computing Atmospheric mass density...

Documentation

Showing up to 5 results
|